User: anonymous   Login
Location: Unspecified
(0.0000°N, 0.0000°E)
Time: 07:31:48
(UTC+00:00)
Language:

HETE-2 - Orbit

View from above orbital plane
View from above orbital plane
View from above satellite
View from above satellite

Ground track
Ground track

The orbit data is extracted from the following two-line orbital elements,

1 26561U 00061A   18015.11004540  .00001323  00000-0  27323-4 0  9997
2 26561   1.9486 258.7743 0018497 270.1356  89.6567 15.07523670946881
Epoch (UTC): 15 January 2018 02:38:27
Eccentricity: 0.0018497
inclination: 1.9486°
perigee height: 531 km
apogee height: 556 km
right ascension of ascending node: 258.7743°
argument of perigee: 270.1356°
revolutions per day: 15.07523670
mean anomaly at epoch: 89.6567°
orbit number at epoch: 94688

The dashed part of the orbit path shows where the satellite is in the earth's shadow,  

DLR